Home > Time Zones > World Clock > Weather > Spain > Cadiz > Past weeks

Flag for Spain Weather past 2 weeks in Cadiz, Cádiz, Spain

Now
59 °F

Sunny.


Feels Like: 59 °F
Forecast: 56 / 67 °F
Wind: 1 mph from North

Location: Rota Airport

Current Time: Apr 18, 2015 at 11:17:06 AM

Latest Report: Apr 18, 2015 at 10:00 AM


Visibility: 10 mi

Pressure: 30.04 "Hg

Humidity: 77%

Dew point: 52 °F

Location of CadizLocation

Historic Weather in Cadiz — Graph

°F

Cadiz temperature yesterday

Maximum temperature yesterday: 70 °F (at 2:00 PM)
Minimum temperature yesterday: 54 °F (at 6:00 AM)
Average temperature yesterday: 61 °F

Past Weeks' High & Low Weather Summary

 TemperatureHumidityPressure
High75 °F (Apr 4, 5:00 PM)100% (Apr 15, 4:00 AM)30.24 "Hg (Apr 15, 4:00 AM)
Low52 °F (Apr 12, 8:00 AM)44% (Apr 13, 7:00 PM)29.77 "Hg (Apr 4, 5:00 PM)
Average62 °F76%30.04 "Hg
* Reported Apr 3 10:00 AM — Apr 18 10:00 AM, Cadiz, Weather by CustomWeather, © 2015

Note: Actual official high and low records may vary slightly from our data, if they occured in-between our weather recording intervals... More about our weather records

Advertising

Cadiz weather history for previous 24 hours

 ConditionsComfort  
Time TempWeatherWind HumidityBarometerVisibility
10:00 AM
Sat, Apr 18
59 °FSunny.1 mph77%30.04 "Hg10 mi
9:00 AM55 °FSunny.1 mph82%30.04 "Hg10 mi
8:00 AM54 °FClear.1 mph88%30.01 "Hg10 mi
7:00 AM54 °FClear.3 mph88%29.98 "Hg10 mi
6:00 AM54 °FClear.1 mph88%29.98 "Hg10 mi
5:00 AM55 °FClear.No wind88%30.01 "Hg10 mi
4:00 AM57 °FClear.No wind82%30.01 "Hg10 mi
3:00 AM59 °FClear.2 mph82%30.04 "Hg10 mi
2:00 AM61 °FClear.10 mph77%30.04 "Hg10 mi
1:00 AM63 °FPassing clouds.8 mph77%30.04 "HgN/A
12:00 AM61 °FClear.8 mph88%30.04 "Hg10 mi
11:00 PM
Fri, Apr 17
63 °FPassing clouds.9 mph88%30.04 "HgN/A
10:00 PM63 °FPassing clouds.12 mph88%30.01 "HgN/A
9:00 PM63 °FPassing clouds.9 mph88%30.01 "HgN/A
8:00 PM64 °FPassing clouds.13 mph78%30.01 "HgN/A
7:00 PM68 °FPassing clouds.14 mph64%30.01 "HgN/A
6:00 PM68 °FPassing clouds.13 mph69%30.01 "HgN/A
5:00 PM70 °FPassing clouds.13 mph69%30.01 "HgN/A
4:00 PM68 °FPassing clouds.12 mph73%30.04 "HgN/A
3:00 PM70 °FPassing clouds.9 mph73%30.04 "HgN/A
2:00 PM70 °FPassing clouds.5 mph69%30.07 "HgN/A
1:00 PM68 °FPassing clouds.6 mph73%30.09 "HgN/A
12:00 PM64 °FPassing clouds.3 mph83%30.09 "HgN/A
11:00 AM59 °FPartly sunny.5 mph100%30.09 "Hg6 mi
Weather by CustomWeather, © 2015

See weather overviewHow to use our weather pages